This is the latest recevied weather packets stored in our database for station/object DB7GV-8. If no packets are shown the sender has not sent any weather packets the latest 10 day(s).
| Time | Temp. | Humidity | Pressure | Rain* | Wind** | Luminosity | Snow |
|---|---|---|---|---|---|---|---|
| 1777376303 | 24.44° C | 25% | 1016.1 hPa | - | - | - | - |
| 1777375397 | 25° C | 26% | 1016.2 hPa | - | - | - | - |
| 1777374492 | 25.56° C | 26% | 1016.2 hPa | - | - | - | - |
| 1777373587 | 25° C | 26% | 1016.2 hPa | - | - | - | - |
| 1777372681 | 25.56° C | 26% | 1016.2 hPa | - | - | - | - |
| 1777371776 | 25.56° C | 26% | 1016.3 hPa | - | - | - | - |
| 1777370871 | 26.11° C | 25% | 1016.4 hPa | - | - | - | - |
| 1777369965 | 25° C | 25% | 1016.4 hPa | - | - | - | - |
| 1777369060 | 26.11° C | 24% | 1016.4 hPa | - | - | - | - |
| 1777368154 | 26.67° C | 24% | 1016.4 hPa | - | - | - | - |
| 1777367249 | 26.11° C | 24% | 1016.3 hPa | - | - | - | - |
| 1777366343 | 25.56° C | 26% | 1016.4 hPa | - | - | - | - |
| 1777365438 | 25° C | 26% | 1016.4 hPa | - | - | - | - |
| 1777364533 | 24.44° C | 25% | 1016.4 hPa | - | - | - | - |
| 1777363628 | 38.33° C | 15% | 1016.6 hPa | - | - | - | - |
| 1777362721 | 35.56° C | 16% | 1016.6 hPa | - | - | - | - |
| 1777361816 | 34.44° C | 18% | 1016.5 hPa | - | - | - | - |
| 1777360911 | 35.56° C | 19% | 1016.6 hPa | - | - | - | - |
| 1777360006 | 30° C | 24% | 1016.7 hPa | - | - | - | - |
| 1777359100 | 30° C | 27% | 1016.9 hPa | - | - | - | - |
| 1777358194 | 21.11° C | 45% | 1016.8 hPa | - | - | - | - |
| 1777357290 | 10.56° C | 63% | 1016.9 hPa | - | - | - | - |
| 1777356384 | 10° C | 65% | 1016.9 hPa | - | - | - | - |
| 1777355479 | 9.44° C | 66% | 1016.9 hPa | - | - | - | - |
| 1777354573 | 8.89° C | 68% | 1016.8 hPa | - | - | - | - |
* Rain since midnight (hover to see other rain measurements)
** Current wind speed in m/s (hover to see current wind gust speed)